Location: Unspecified
(45.8670°S, 0.0000°E)
Time: 15:11:36
(UTC+00:00)

ISS - Visible Passes

Search period start: 05 December 2019 00:00
Search period end: 15 December 2019 00:00
Orbit: 412 x 421 km, 51.6° (Epoch: 05 December)

Date Brightness Start Highest point End Pass type
(mag) Time Alt. Az. Time Alt. Az. Time Alt. Az.
05 Dec -3.5 01:49:14 44° NNW 01:49:56 55° NE 01:53:19 10° ESE visible
05 Dec -2.5 03:23:32 10° W 03:26:48 39° SSW 03:30:04 10° SE visible
06 Dec -2.5 01:02:19 30° ENE 01:02:19 30° ENE 01:04:43 10° ESE visible
06 Dec -2.9 02:35:11 12° W 02:38:15 50° SSW 02:41:37 10° ESE visible
07 Dec -1.2 00:15:21 13° E 00:15:21 13° E 00:15:57 10° E visible
07 Dec -3.5 01:48:14 31° W 01:49:43 69° SSW 01:53:09 10° ESE visible
07 Dec -1.9 03:23:45 10° WSW 03:26:51 31° S 03:29:58 10° ESE visible
08 Dec -3.9 01:01:11 81° NNE 01:01:13 81° NNE 01:04:40 10° ESE visible
08 Dec -2.1 02:35:03 10° WSW 02:38:13 34° S 02:41:24 10° ESE visible
09 Dec -2.4 00:14:05 31° E 00:14:05 31° E 00:16:08 10° ESE visible
09 Dec -2.5 01:46:56 14° W 01:49:37 40° SSW 01:52:53 10° SE visible
09 Dec -1.8 03:23:48 10° WSW 03:26:54 30° S 03:30:00 10° ESE visible
09 Dec -1.2 23:26:53 14° E 23:26:53 14° E 23:27:28 10° ESE visible
10 Dec -3.0 00:59:44 32° W 01:01:01 52° SSW 01:04:24 10° ESE visible
10 Dec -1.8 02:35:09 10° WSW 02:38:14 30° S 02:41:19 10° ESE visible
11 Dec -3.6 00:12:24 73° SW 00:12:26 73° SSW 00:15:54 10° ESE visible
11 Dec -1.8 01:46:26 10° WSW 01:49:34 31° S 01:52:41 10° ESE visible
11 Dec -2.1 03:23:37 10° SW 03:26:52 38° SSE 03:30:06 10° E visible
11 Dec -3.0 23:24:53 44° ESE 23:24:53 44° ESE 23:27:22 10° ESE visible
12 Dec -2.1 00:57:42 10° W 01:00:54 35° SSW 01:04:06 10° ESE visible
12 Dec -1.8 02:35:03 10° WSW 02:38:13 33° S 02:41:21 10° ESE visible
12 Dec -2.3 22:37:00 26° E 22:37:00 26° E 22:38:46 10° ESE visible
13 Dec -2.5 00:09:47 16° W 00:12:14 42° SSW 00:15:33 10° ESE visible
13 Dec -1.7 01:46:25 10° WSW 01:49:32 30° S 01:52:37 10° ESE visible
13 Dec -3.1 03:23:16 10° WSW 03:26:42 62° SSE 03:30:05 10° ENE visible
13 Dec -2.4 21:48:10 24° ENE 21:48:10 24° ENE 21:50:03 10° ESE visible
13 Dec -3.0 23:20:50 14° W 23:23:36 55° SSW 23:27:01 10° ESE visible
14 Dec -1.7 00:57:43 10° WSW 01:00:49 30° S 01:03:55 10° ESE visible
14 Dec -2.5 02:34:44 10° WSW 02:38:04 46° SSE 02:41:23 10° E visible
14 Dec -2.3 20:56:04 10° N 20:58:35 19° NE 21:01:06 10° E visible
14 Dec -3.6 22:31:34 10° WNW 22:35:00 77° SSW 22:38:28 10° ESE visible
